Location: Castelnau
(43.6639°N, 0.8431°W)
Time: 15:43:01
(UTC+00:00)

Helios 1A Rocket - Pass Details

Date: 13 January 2026
Orbit: 426 x 436 km, 98.3° (Epoch: 11 February)

Event Time Altitude Azimuth Distance (km) Brightness Sun altitude
Rises 05:33:33 0° 152° (SSE) 2,442 6.7 -21.4°
Reaches altitude 10° 05:35:37 10° 146° (SE) 1,576 5.7 -21.0°
Maximum altitude 05:38:51 46° 72° (ENE) 619 3.4 -20.5°
Enters shadow 05:41:10 17° 5° (N) 1,207 4.5 -20.1°
